Temperature
9 7 7 7 8 9 9 9 9 9 10 9 8 9 9 9 9 8 9 9 10 10 10 10 9 9 9 9 9 9 9 9 9 9 9 9 9 10 10 10 10 10 10 10
7 7 8 8 8 9 9 8 8 8 9 9 8 8 8 8 8 9 9 9 9 9 9 9 9 9 9 9 9 9 9 9 9 9 9 9 9 9 9 9 9 9 9 9
7 8 9 9 8 8 8 8 8 8 8 8 8 7 8 8 8 9 9 9 9 9 9 9 9 9 8 8 8 8 8 8 8 8 8 8 8 8 8 9 9 9 9 9
7 8 8 8 8 8 8 8 8 8 7 6 7 6 7 7 7 7 8 8 9 9 9 8 8 8 8 8 8 8 8 8 8 8 8 8 8 8 8 8 9 9 9 9
6 7 8 8 8 8 7 8 8 7 6 6 6 6 6 7 7 7 7 8 8 8 8 8 8 8 8 8 7 7 7 7 7 7 7 7 7 7 8 8 8 8 8 8
6 7 7 7 8 8 8 7 6 5 5 5 6 6 6 6 7 7 7 7 8 8 8 8 8 7 7 7 7 7 7 7 7 7 7 7 7 7 7 7 7 8 8 8
6 6 7 7 7 7 7 5 5 5 4 5 6 6 6 6 6 6 6 7 7 7 7 7 7 7 7 7 6 6 6 6 6 6 6 6 6 6 7 7 7 7 7 7
5 5 6 6 6 6 6 6 5 5 5 5 5 5 6 6 6 7 7 7 7 7 7 7 6 6 6 6 6 6 6 6 6 5 6 6 6 6 6 6 6 6 6 7
4 5 5 6 6 6 5 5 5 4 4 4 4 5 5 6 5 5 6 6 6 6 6 6 6 6 6 6 6 6 5 5 5 5 5 5 5 5 5 6 6 6 6 6
4 4 4 5 5 6 5 5 4 4 4 5 5 5 5 6 5 4 4 5 5 5 5 5 6 6 5 5 5 5 5 5 5 5 5 5 5 5 5 5 5 5 5 5
4 3 3 4 4 4 4 4 4 3 3 4 5 5 5 5 5 4 4 5 5 5 5 5 5 5 5 5 5 5 4 4 4 4 4 4 4 4 4 4 5 5 5 5
3 2 2 3 3 4 4 4 3 3 3 2 3 4 5 4 4 4 4 5 5 5 5 5 5 5 5 4 4 4 4 4 4 4 4 4 4 4 4 4 4 4 4 4
3 2 2 3 3 3 3 3 3 2 2 2 3 5 4 3 4 4 5 5 5 5 5 4 4 4 4 4 4 4 3 3 3 3 3 3 3 3 3 3 3 3 3 3
3 1 2 3 3 2 2 2 2 2 2 2 2 4 4 4 3 4 4 5 5 4 4 4 4 4 4 4 3 3 3 3 3 3 3 3 3 3 3 3 3 3 3 3
2 1 1 1 2 2 2 2 2 2 2 2 3 3 4 3 3 4 4 4 4 4 4 4 4 3 3 3 3 3 3 3 3 3 3 2 2 2 2 2 2 2 2 2
0 1 1 1 2 2 2 2 1 2 2 2 2 2 3 3 3 3 3 3 3 3 4 4 3 3 3 3 3 3 3 3 2 2 2 2 2 2 2 2 2 2 2 2
-1 -0 1 1 1 1 1 1 1 1 1 2 2 3 2 2 2 3 3 3 3 3 4 3 3 3 3 3 3 2 2 2 2 2 2 2 1 1 1 1 1 1 1 1
-1 -0 -0 -0 1 1 3 2 1 1 1 1 1 2 2 2 3 4 4 4 4 4 3 3 3 3 3 3 2 2 2 2 2 2 1 1 1 1 1 1 1 1 1 1
-1 -0 -1 -1 0 1 2 2 1 1 1 1 1 1 2 2 2 3 4 4 4 4 4 3 3 3 3 2 2 2 2 2 1 1 1 1 1 1 1 1 1 0 0 0
-1 -1 -1 -1 0 1 3 2 1 1 1 1 1 1 1 1 1 2 4 4 4 3 3 3 3 2 2 2 2 1 1 1 1 1 1 1 0 0 0 0 -0 -0 -0 -0
-2 -2 -1 -1 -0 1 1 1 1 2 2 2 2 2 1 1 2 3 3 3 3 3 3 3 2 2 2 2 1 1 1 1 1 0 0 0 0 -0 -0 -0 -1 -1 -1 -1
-2 -2 -2 -2 -1 1 0 -0 0 1 2 2 2 2 2 3 3 3 3 3 3 3 2 2 2 2 1 1 1 1 1 0 0 -0 -0 -0 -0 -1 -1 -1 -1 -1 -1 -1
-2 -1 -2 -1 0 1 1 1 2 2 2 2 2 3 3 2 2 2 2 2 2 2 2 1 1 1 1 1 1 0 0 -0 -0 -0 -1 -1 -1 -1 -1 -1 -1 -2 -2 -2
-3 -3 -2 -2 -1 -0 1 2 2 2 2 2 2 2 2 2 2 2 2 2 2 1 1 1 1 1 0 0 0 -0 -0 -1 -1 -1 -1 -1 -1 -1 -2 -2 -2 -2 -2 -2
-2 -3 -3 -2 -2 -1 1 1 2 2 2 2 2 2 2 2 2 2 1 1 1 1 1 0 0 0 0 -0 -0 -1 -1 -1 -1 -1 -1 -1 -2 -2 -2 -2 -2 -3 -3 -3
-3 -3 -2 -1 -0 -1 1 2 2 1 1 1 1 1 1 1 1 1 1 1 1 1 0 0 -0 -0 -0 -1 -1 -1 -1 -1 -2 -2 -2 -2 -2 -2 -2 -3 -3 -3 -3 -3
Wind_Speed
1 3 4 7 8 6 3 4 5 5 3 3 7 11 10 7 6 7 7 7 8 7 5 4 4 4 4 3 3 2 2 1 1 1 1 1 1 1 0 0 1 2 2 3
2 4 6 4 4 4 3 4 4 4 2 3 5 9 9 7 8 8 9 9 9 6 4 5 4 4 4 3 3 3 2 2 1 1 1 2 2 1 1 0 1 1 2 3
6 4 3 3 3 3 4 5 5 4 4 2 2 6 5 5 5 6 7 7 7 8 8 7 5 4 4 4 3 3 3 2 2 1 1 1 1 1 0 0 1 1 1 3
3 4 1 2 3 4 5 4 4 2 0 3 1 5 6 5 6 6 6 6 7 7 7 7 6 5 5 4 3 3 3 2 2 1 2 2 2 2 2 2 2 1 1 2
3 1 2 3 4 3 4 2 2 2 2 3 2 4 8 3 7 8 8 7 6 6 7 7 7 6 5 4 3 3 3 2 2 1 2 3 2 1 1 1 1 0 0 1
3 2 1 2 1 2 2 3 4 3 2 4 6 5 7 5 8 6 5 6 5 5 5 5 4 5 4 3 3 3 3 2 2 2 2 3 3 2 1 1 1 1 1 0
3 3 2 0 1 2 3 4 2 3 1 6 3 5 9 7 6 6 6 5 5 5 6 6 5 5 4 4 4 3 3 2 2 2 2 2 3 3 2 2 2 2 1 0
2 4 2 1 3 4 3 6 6 5 5 5 2 7 7 5 3 2 2 3 4 4 5 5 5 5 5 5 4 4 3 2 2 2 2 2 2 2 1 2 2 2 2 1
4 4 2 1 1 4 4 4 4 3 1 3 6 6 7 2 2 2 2 3 2 3 4 5 5 4 4 4 4 4 4 3 2 2 1 1 2 2 2 2 2 1 1 1
4 3 3 2 1 1 3 4 4 4 3 4 5 5 5 5 4 2 1 2 2 2 3 4 4 4 4 3 3 3 3 3 2 2 2 2 1 2 2 2 2 1 1 1
2 3 3 1 4 6 3 3 3 3 3 4 4 6 5 6 6 5 5 4 4 3 3 4 3 3 3 3 2 2 2 2 2 2 2 2 1 1 2 2 1 1 1 1
2 3 3 6 4 3 4 5 6 4 5 4 4 7 4 4 4 5 5 4 3 3 3 3 4 4 3 3 3 3 2 2 2 2 2 2 1 2 2 1 1 1 2 1
2 3 0 3 2 1 2 4 4 4 3 5 5 8 3 2 2 3 3 3 2 2 2 2 3 4 4 4 4 3 3 3 2 2 2 2 2 2 2 1 1 2 2 1
2 3 6 8 6 4 4 5 5 5 5 6 10 11 8 6 6 6 4 4 3 4 4 3 3 4 4 4 4 3 3 3 3 2 2 2 2 2 2 1 1 1 1 1
3 4 5 7 6 4 6 7 8 9 10 10 10 11 12 9 9 7 5 4 4 4 5 5 5 4 4 4 4 3 3 3 3 3 3 3 2 2 2 2 1 1 1 1
1 3 3 6 6 7 9 10 11 12 11 12 11 14 11 7 5 5 6 6 6 6 6 6 5 4 5 5 5 4 3 3 3 3 3 3 3 2 2 2 2 1 1 1
2 3 3 5 4 3 9 12 14 10 10 10 14 14 6 4 6 7 7 7 8 7 7 7 6 6 6 5 5 5 5 3 4 4 3 3 3 3 3 2 2 2 2 1
5 4 3 2 0 8 9 4 8 10 11 11 9 8 6 7 7 6 7 8 8 7 7 7 6 6 5 4 4 4 4 4 4 4 3 4 4 3 3 2 2 2 2 2
7 6 3 3 5 9 8 4 5 7 9 9 11 9 6 4 3 5 6 6 8 7 6 6 6 5 4 5 4 4 4 4 4 4 4 4 4 4 3 3 3 2 2 2
3 4 4 4 4 7 7 3 3 3 6 6 8 8 6 2 3 6 4 4 5 4 4 4 3 3 4 4 4 4 5 5 5 5 4 4 4 4 4 4 3 2 2 2
2 3 5 6 6 8 6 2 3 4 7 3 5 7 6 7 7 5 3 3 3 3 3 2 3 4 4 4 5 5 5 6 5 4 4 3 4 4 4 3 2 2 2 2
7 5 6 4 5 8 3 3 5 7 4 3 4 6 7 7 5 4 4 3 3 2 2 2 2 3 3 4 5 5 5 5 4 3 3 3 3 3 3 3 3 2 3 2
7 8 6 8 8 4 4 5 5 3 4 4 3 4 5 5 5 5 4 4 3 3 3 2 3 3 2 3 5 6 5 4 4 4 4 4 3 3 3 3 3 3 3 3
5 4 4 6 8 7 7 6 5 4 5 5 5 4 4 5 5 5 4 4 4 4 3 3 3 3 3 3 3 5 4 4 4 5 4 4 4 3 3 3 3 3 3 3
6 4 5 7 8 6 7 7 7 6 5 5 4 4 5 5 6 6 5 5 5 4 3 3 4 4 4 3 3 3 4 5 5 4 4 3 3 3 3 3 3 4 4 4
6 7 7 9 7 6 7 6 6 6 7 6 5 5 5 5 6 5 5 5 5 4 4 4 4 4 4 3 3 3 3 5 5 4 4 3 3 3 3 3 3 4 5 6
Wind_Direction
85 107 204 213 205 207 196 206 240 248 251 218 236 250 257 247 233 230 228 223 215 210 209 181 165 154 144 138 133 144 148 162 154 149 152 168 209 247 260 150 148 161 167 157
55 238 233 216 216 221 224 234 258 278 282 240 258 264 261 243 229 226 221 221 219 211 200 188 176 163 165 167 164 163 168 170 181 192 197 196 206 222 229 213 87 157 163 157
200 239 222 199 220 218 234 221 234 257 326 332 306 290 260 253 234 230 221 217 212 204 199 193 186 183 169 171 180 181 184 178 186 175 125 110 71 37 72 268 241 202 154 139
234 261 229 204 230 206 240 235 215 212 9 280 194 276 268 249 250 235 227 221 217 207 195 189 183 182 184 185 178 171 165 161 178 167 152 167 177 214 230 225 222 202 150 126
249 237 196 213 236 203 216 219 188 203 199 285 240 227 278 261 245 241 229 224 219 205 189 186 184 182 177 166 160 163 151 151 155 159 170 175 183 207 232 222 172 191 138 124
254 279 206 211 254 207 162 55 35 42 86 263 230 203 271 235 228 235 227 223 215 196 179 173 164 151 147 144 144 148 146 152 149 148 158 167 169 171 160 167 170 187 213 182
317 301 300 141 92 18 95 102 31 338 304 249 225 214 251 250 240 225 224 219 205 181 169 161 154 152 148 146 149 151 150 153 157 153 163 175 172 173 176 183 179 173 178 204
208 270 254 211 184 191 190 157 174 208 228 272 272 234 255 275 280 245 193 177 167 163 165 165 164 160 158 158 153 152 155 162 167 164 173 170 162 172 169 171 171 177 187 195
196 241 287 246 198 155 164 197 184 156 212 264 264 277 297 306 353 27 76 106 154 171 164 165 164 162 164 165 168 169 164 159 163 171 168 157 149 137 141 143 138 140 157 135
168 232 271 293 32 288 168 156 117 149 189 251 275 265 254 251 245 251 206 183 192 184 165 165 168 170 171 169 164 157 154 154 148 145 147 137 127 121 123 122 125 127 125 113
147 181 285 307 201 205 176 167 161 169 185 192 253 264 242 231 215 207 214 207 196 195 182 177 180 179 169 156 149 150 150 139 135 138 127 116 125 114 101 104 120 139 129 121
183 148 240 247 253 235 203 195 167 183 228 206 227 267 281 243 218 202 214 218 204 196 193 189 180 169 167 169 168 170 165 157 155 139 123 132 127 112 103 100 100 109 116 117
152 139 282 321 306 306 229 213 190 173 173 200 220 263 299 301 277 241 225 229 217 205 206 206 190 182 183 185 184 182 179 176 163 138 129 128 132 129 129 121 102 100 106 103
130 180 204 218 229 201 231 233 198 182 207 229 234 254 276 275 269 267 253 234 218 210 209 210 214 208 200 193 189 186 189 181 165 144 145 154 167 167 160 139 124 121 113 107
135 217 240 256 260 233 233 235 220 217 216 221 245 250 259 252 247 249 244 236 227 224 220 216 214 213 206 199 195 191 193 187 170 157 167 187 186 169 153 146 145 132 119 121
143 211 248 275 262 251 262 247 230 234 233 237 255 264 257 257 255 247 238 229 230 231 228 222 216 212 209 203 200 196 196 192 172 173 190 188 174 166 166 166 151 139 139 130
201 182 218 265 284 301 264 236 222 224 221 213 235 249 258 250 243 240 232 225 230 234 228 220 217 213 211 207 200 197 199 187 174 180 194 191 181 180 184 175 158 166 173 168
193 196 205 232 225 245 250 233 210 221 240 228 235 249 242 238 248 251 232 221 231 231 226 225 219 217 213 202 197 189 180 178 179 182 191 193 186 190 191 182 186 194 194 194
197 186 190 192 234 269 280 242 191 203 255 232 229 244 249 252 295 283 243 224 225 226 227 224 217 213 203 201 192 176 179 180 183 191 197 197 190 190 193 197 205 207 197 210
178 182 189 198 212 242 258 257 193 146 268 247 215 227 233 210 262 268 256 231 230 231 228 219 206 192 196 200 178 172 187 190 202 206 205 200 194 192 198 204 209 213 203 212
162 196 211 222 238 258 263 256 131 184 250 263 214 216 206 213 230 251 251 240 230 233 234 208 192 198 205 193 174 185 197 208 211 199 192 193 193 195 199 202 204 199 203 199
184 189 202 192 223 253 233 136 189 230 266 263 236 220 217 232 248 251 244 236 223 220 218 203 198 221 219 192 179 194 215 218 196 180 186 194 194 199 197 187 197 196 191 199
207 201 196 202 221 256 203 214 236 238 251 262 257 246 223 235 247 249 245 239 230 223 222 208 197 216 232 210 193 204 223 205 181 178 192 200 198 202 198 193 197 197 193 202
248 210 207 249 261 260 254 261 266 249 250 263 261 256 230 235 245 247 246 244 238 232 225 210 194 207 233 231 214 213 214 194 180 188 196 197 197 205 205 204 204 204 202 209
231 197 218 250 266 282 267 247 251 262 267 273 273 255 238 234 249 247 248 245 239 236 228 210 207 216 231 231 234 228 202 181 184 191 199 202 204 206 213 216 216 218 220 214
214 203 211 240 243 234 261 261 250 251 258 258 258 265 259 237 243 248 249 240 233 232 224 219 219 222 228 225 231 226 197 180 180 191 203 206 206 209 211 216 243 245 237 243
Height
1490 1495 1496 1494 1494 1493 1494 1496 1496 1494 1490 1492 1491 1489 1486 1485 1485 1485 1485 1485 1486 1486 1488 1490 1491 1491 1492 1492 1493 1493 1494 1494 1495 1495 1495 1496 1496 1497 1498 1498 1499 1500 1502 1502
1495 1495 1491 1490 1491 1493 1494 1496 1496 1493 1490 1491 1490 1487 1483 1482 1481 1480 1480 1481 1482 1483 1484 1486 1487 1487 1488 1489 1490 1490 1491 1491 1492 1493 1493 1494 1494 1494 1495 1496 1497 1498 1499 1500
1493 1491 1488 1490 1491 1492 1493 1496 1495 1494 1492 1490 1491 1488 1482 1479 1478 1477 1477 1477 1478 1479 1480 1481 1483 1483 1484 1485 1486 1487 1487 1488 1489 1490 1491 1491 1492 1491 1492 1493 1494 1495 1496 1496
1491 1489 1488 1489 1491 1491 1494 1491 1491 1492 1497 1499 1495 1497 1483 1479 1476 1475 1474 1475 1475 1476 1477 1478 1479 1480 1481 1482 1483 1484 1484 1485 1486 1487 1488 1488 1488 1488 1489 1490 1491 1492 1493 1494
1491 1488 1488 1489 1489 1489 1490 1489 1490 1492 1496 1500 1497 1499 1487 1479 1476 1473 1471 1471 1472 1472 1473 1474 1475 1476 1478 1479 1480 1481 1482 1482 1483 1484 1485 1486 1486 1486 1487 1488 1488 1489 1490 1491
1490 1488 1487 1487 1487 1487 1488 1491 1493 1497 1501 1502 1494 1497 1487 1479 1472 1469 1468 1468 1469 1470 1471 1472 1473 1474 1475 1477 1478 1479 1479 1480 1481 1482 1482 1483 1483 1484 1484 1485 1485 1486 1487 1488
1492 1489 1487 1487 1488 1488 1490 1498 1505 1505 1507 1500 1491 1492 1483 1470 1467 1466 1466 1466 1467 1468 1468 1469 1471 1472 1473 1474 1475 1476 1477 1478 1478 1479 1480 1480 1481 1482 1482 1482 1483 1484 1485 1485
1495 1493 1488 1487 1487 1490 1490 1494 1502 1504 1505 1500 1492 1489 1476 1468 1465 1464 1464 1465 1466 1466 1467 1468 1469 1470 1471 1472 1473 1474 1475 1475 1476 1477 1478 1478 1479 1479 1480 1481 1481 1482 1482 1483
1493 1491 1487 1486 1485 1487 1490 1493 1493 1500 1503 1502 1494 1485 1473 1466 1465 1464 1464 1464 1465 1466 1467 1468 1469 1469 1470 1471 1472 1472 1473 1473 1474 1475 1476 1476 1477 1477 1478 1479 1479 1480 1481 1482
1487 1492 1488 1487 1486 1486 1488 1490 1497 1500 1501 1495 1489 1485 1477 1468 1467 1465 1465 1464 1465 1466 1466 1467 1468 1468 1469 1470 1470 1471 1471 1471 1472 1473 1473 1474 1474 1475 1476 1477 1477 1478 1479 1479
1486 1492 1492 1489 1488 1488 1489 1491 1492 1497 1498 1497 1493 1481 1466 1464 1463 1463 1463 1463 1464 1465 1465 1466 1467 1468 1468 1469 1469 1469 1469 1470 1470 1471 1471 1472 1472 1473 1474 1474 1475 1476 1477 1477
1486 1491 1493 1490 1486 1485 1485 1486 1490 1494 1496 1497 1496 1481 1463 1462 1460 1460 1461 1462 1463 1464 1465 1465 1466 1466 1467 1467 1467 1467 1468 1468 1468 1469 1469 1470 1471 1471 1471 1472 1473 1474 1474 1475
1485 1490 1493 1490 1490 1488 1486 1485 1486 1490 1494 1496 1492 1476 1462 1461 1460 1459 1460 1460 1461 1462 1463 1464 1464 1464 1464 1465 1465 1465 1466 1466 1467 1467 1468 1468 1469 1469 1470 1470 1471 1471 1472 1473
1483 1488 1490 1486 1481 1483 1485 1484 1485 1487 1491 1489 1481 1471 1463 1461 1460 1459 1458 1459 1460 1461 1461 1461 1461 1461 1461 1462 1462 1463 1463 1464 1465 1465 1466 1466 1467 1467 1468 1468 1469 1469 1470 1470
1482 1487 1486 1483 1480 1481 1479 1479 1481 1482 1481 1481 1470 1468 1460 1459 1457 1456 1457 1457 1457 1458 1458 1458 1458 1459 1459 1459 1460 1460 1461 1462 1462 1463 1463 1464 1465 1466 1466 1466 1467 1467 1467 1468
1482 1485 1485 1482 1478 1478 1476 1474 1475 1474 1473 1472 1468 1462 1454 1454 1455 1454 1454 1454 1454 1454 1454 1455 1455 1456 1456 1456 1457 1458 1458 1459 1460 1460 1461 1462 1463 1463 1464 1464 1465 1465 1465 1465
1483 1484 1484 1481 1479 1476 1473 1465 1466 1466 1463 1462 1461 1454 1451 1452 1452 1451 1451 1451 1450 1450 1451 1451 1451 1452 1453 1453 1454 1455 1455 1456 1457 1457 1458 1459 1460 1460 1461 1462 1462 1462 1463 1463
1479 1481 1483 1482 1481 1479 1458 1454 1454 1456 1454 1454 1451 1449 1449 1448 1447 1447 1447 1447 1447 1447 1447 1448 1448 1449 1449 1450 1451 1452 1453 1453 1454 1454 1455 1456 1457 1458 1458 1459 1459 1459 1460 1460
1473 1476 1480 1481 1478 1466 1454 1451 1452 1454 1451 1446 1447 1445 1446 1445 1446 1444 1444 1444 1444 1444 1444 1444 1445 1445 1446 1447 1447 1448 1449 1449 1450 1451 1452 1453 1454 1454 1455 1455 1455 1456 1456 1457
1471 1472 1477 1477 1473 1465 1450 1447 1446 1449 1449 1440 1441 1442 1443 1444 1447 1443 1440 1441 1441 1441 1441 1441 1441 1442 1442 1443 1444 1444 1445 1445 1446 1447 1448 1450 1450 1451 1451 1452 1452 1452 1453 1453
1472 1473 1473 1471 1468 1457 1448 1445 1446 1452 1445 1438 1437 1437 1439 1440 1439 1438 1437 1438 1438 1438 1438 1438 1438 1438 1439 1439 1440 1440 1441 1442 1443 1444 1445 1446 1446 1447 1448 1448 1448 1449 1449 1449
1466 1469 1470 1469 1467 1456 1444 1445 1446 1441 1437 1436 1434 1434 1434 1434 1435 1435 1435 1434 1434 1434 1434 1434 1434 1435 1435 1436 1436 1437 1437 1438 1439 1440 1441 1442 1443 1443 1444 1444 1444 1445 1445 1445
1459 1457 1456 1456 1450 1441 1439 1438 1437 1436 1435 1434 1432 1432 1432 1432 1432 1431 1431 1431 1431 1431 1431 1431 1431 1431 1432 1432 1433 1433 1433 1435 1435 1436 1437 1438 1439 1439 1440 1440 1440 1441 1441 1441
1453 1450 1451 1450 1441 1437 1436 1435 1434 1433 1432 1431 1431 1430 1429 1429 1428 1428 1428 1428 1428 1428 1428 1428 1428 1427 1428 1428 1429 1429 1429 1430 1431 1432 1433 1434 1435 1435 1436 1436 1437 1437 1437 1437
1446 1447 1447 1444 1437 1434 1431 1431 1430 1430 1429 1428 1428 1427 1426 1426 1425 1425 1424 1424 1424 1424 1424 1424 1424 1424 1424 1424 1425 1425 1425 1426 1427 1428 1429 1430 1431 1431 1432 1432 1433 1433 1433 1434
1439 1440 1440 1435 1430 1431 1428 1427 1427 1426 1425 1424 1423 1423 1422 1422 1421 1421 1421 1420 1420 1420 1420 1420 1420 1420 1420 1420 1421 1421 1421 1422 1423 1423 1424 1425 1426 1427 1428 1428 1429 1429 1430 1430